User: anonymous   Login
Location: Unspecified
(49.8670°N, 0.0000°E)
Time: 15:10:27
(UTC+00:00)
Language:

Hubble Space Telescope - Orbit

View from above orbital plane
View from above orbital plane
View from above satellite
View from above satellite

Ground track
Ground track

The orbit data is extracted from the following two-line orbital elements,

1 20580U 90037B   19166.65141153 +.00000357 +00000-0 +10795-4 0  9994
2 20580 028.4684 232.0432 0002954 091.0802 043.4396 15.09235927400348
Epoch (UTC): 15 June 2019 15:38:01
Eccentricity: 0.0002954
inclination: 28.4684°
perigee height: 536 km
apogee height: 540 km
right ascension of ascending node: 232.0432°
argument of perigee: 91.0802°
revolutions per day: 15.09235927
mean anomaly at epoch: 43.4396°
orbit number at epoch: 40034

The dashed part of the orbit path shows where the satellite is in the earth's shadow,  

DLR